Total_Precipitation_Accumulation
0.76 0.88 1.19 1.10 0.98 0.86 0.75 0.74 0.76 0.72 0.73 0.67 0.64 0.60 0.58 0.58 0.60 0.67 0.72 0.82 0.93 1.00 1.10 1.19 1.22 1.25 1.27 1.26 1.31 1.25 1.15 1.19 1.31 1.46 1.51 1.52 1.62 1.79 2.08 2.24 2.05 1.39 1.35
0.37 0.54 0.97 0.94 0.78 0.73 0.67 0.70 0.70 0.69 0.68 0.64 0.61 0.60 0.63 0.61 0.59 0.72 0.84 0.90 0.94 1.05 1.06 1.08 1.14 1.14 1.14 1.13 1.14 1.21 1.18 1.33 1.55 1.93 2.03 1.84 1.99 2.03 2.06 1.97 1.93 1.40 1.42
0.24 0.36 0.60 0.80 0.68 0.62 0.63 0.65 0.69 0.63 0.60 0.61 0.62 0.63 0.64 0.64 0.64 0.69 0.77 0.81 0.93 1.06 1.04 0.99 1.04 1.00 1.00 1.07 1.08 1.16 1.27 1.56 1.93 2.44 2.72 2.03 1.64 1.99 1.92 1.79 1.65 1.33 1.28
0.25 0.24 0.26 0.53 0.61 0.58 0.60 0.61 0.64 0.62 0.61 0.61 0.69 0.63 0.62 0.68 0.74 0.79 0.73 0.76 0.87 0.97 0.94 0.95 0.86 0.94 0.95 1.00 1.11 1.24 1.43 1.66 2.11 2.59 2.58 1.70 1.21 1.50 1.60 1.43 1.37 1.29 1.27
0.24 0.19 0.27 0.45 0.49 0.51 0.59 0.58 0.58 0.64 0.71 0.72 0.70 0.59 0.63 0.67 0.77 0.84 0.77 0.80 0.86 0.91 0.92 0.95 0.90 1.00 0.93 0.97 1.08 1.24 1.50 1.75 2.10 2.18 1.71 1.71 1.70 1.53 1.30 1.21 1.31 1.44 1.28
0.30 0.23 0.29 0.44 0.45 0.47 0.52 0.56 0.60 0.74 0.82 0.77 0.71 0.65 0.67 0.68 0.79 0.79 0.79 0.86 0.84 0.93 1.03 1.10 1.03 1.05 1.02 0.98 1.05 1.19 1.39 1.69 1.75 1.27 1.10 1.40 1.53 1.54 1.40 1.37 1.36 1.35 1.21
0.44 0.44 0.43 0.54 0.52 0.52 0.53 0.59 0.67 0.74 0.77 0.79 0.74 0.68 0.68 0.69 0.78 0.80 0.81 0.84 0.82 0.96 1.08 1.18 1.15 1.12 1.10 1.13 1.17 1.23 1.35 1.55 1.35 1.01 1.08 1.39 1.44 1.43 1.63 1.70 1.54 1.30 1.12
0.81 0.78 0.77 0.74 0.67 0.63 0.61 0.66 0.72 0.68 0.65 0.72 0.74 0.70 0.67 0.71 0.74 0.75 0.79 0.82 0.82 0.94 1.05 1.15 1.19 1.13 1.10 1.13 1.16 1.15 1.27 1.23 0.92 0.96 1.11 1.25 1.15 1.28 1.66 1.86 1.72 1.53 1.29
1.18 1.11 0.94 0.82 0.73 0.71 0.77 0.78 0.73 0.66 0.64 0.67 0.72 0.68 0.65 0.68 0.65 0.64 0.74 0.82 0.83 0.92 1.02 1.13 1.12 1.12 1.05 1.04 1.08 1.11 1.24 1.22 1.00 1.16 1.13 1.19 1.12 1.30 1.52 1.69 1.62 1.52 1.35
1.60 1.43 1.13 0.94 0.96 0.82 0.77 0.82 0.80 0.71 0.70 0.71 0.74 0.72 0.75 0.79 0.77 0.82 0.85 0.96 0.95 0.98 1.01 1.10 1.12 1.10 1.06 1.06 1.07 1.18 1.27 1.19 1.00 1.14 1.32 1.16 1.21 1.43 1.55 1.56 1.62 1.59 1.41
2.01 1.59 1.22 1.12 1.20 1.09 0.91 0.84 1.03 0.95 0.90 0.94 1.01 1.04 1.25 1.54 1.28 1.26 1.07 1.20 1.17 1.19 1.22 1.31 1.37 1.36 1.30 1.18 1.23 1.38 1.31 1.19 1.28 1.41 1.65 1.30 1.29 1.56 1.73 1.76 1.67 1.57 1.44
1.97 1.93 1.60 1.36 1.28 1.31 1.16 1.16 1.56 1.51 1.44 1.60 1.69 1.64 1.98 1.99 1.77 1.28 1.27 1.61 1.60 1.67 1.76 1.98 2.12 1.89 1.56 1.36 1.55 1.98 1.51 1.31 1.44 1.50 1.63 1.45 1.51 1.86 2.01 1.96 1.69 1.45 1.37
1.95 1.87 1.92 1.75 1.59 1.56 1.66 1.55 1.69 1.90 1.96 2.07 2.01 2.02 2.24 1.91 1.63 1.46 1.65 2.04 2.07 2.11 2.17 2.38 2.53 1.99 1.99 2.30 2.36 2.27 2.00 1.80 1.77 1.87 1.87 1.87 1.94 2.20 2.26 2.18 1.96 1.68 1.47
2.20 2.10 2.35 2.27 2.18 2.20 2.04 2.00 1.82 1.78 1.80 1.89 2.00 1.94 2.10 2.11 1.99 1.98 2.11 2.16 2.32 2.46 2.70 2.56 2.70 2.67 2.74 2.59 2.57 2.60 2.48 2.32 2.18 2.34 2.67 2.52 2.40 2.44 2.61 2.42 2.11 1.99 1.86
2.64 2.71 2.88 2.93 3.02 2.83 2.57 2.35 1.95 1.93 1.83 1.78 1.84 1.84 2.04 2.28 2.33 2.45 2.24 2.27 2.06 2.18 2.54 2.84 2.86 3.05 3.19 3.04 2.66 2.44 2.47 2.43 2.21 2.20 2.48 2.67 2.68 2.58 2.68 2.69 2.40 2.23 2.18
3.29 3.47 3.48 3.51 3.54 3.34 2.93 2.66 2.36 2.06 2.06 1.86 1.83 1.92 2.36 2.58 2.54 2.64 2.50 2.45 2.14 2.14 2.45 2.82 2.89 3.19 3.22 3.23 2.72 2.38 2.31 2.30 2.10 2.02 2.12 2.52 2.52 2.39 2.42 2.65 2.71 2.64 2.53
4.00 4.18 4.38 4.27 3.98 3.97 3.61 2.91 2.40 2.12 1.94 2.01 2.14 2.20 2.44 2.60 2.77 2.94 2.84 2.47 2.23 2.30 2.50 2.54 2.69 3.17 3.04 2.99 2.82 2.71 2.65 2.42 2.17 2.10 2.02 2.18 2.10 2.23 2.34 2.42 2.64 2.85 2.88
4.60 5.01 5.20 4.81 4.69 4.66 4.29 3.68 3.12 2.79 2.56 2.53 2.53 2.34 2.15 2.37 2.51 2.72 2.49 2.10 2.17 2.37 2.52 2.54 2.55 2.94 3.05 3.07 3.05 2.89 2.75 2.53 2.16 2.05 1.99 1.93 1.93 1.73 1.98 2.24 2.49 2.75 3.06
4.90 5.61 5.99 6.15 5.64 5.21 4.61 4.15 3.64 3.29 3.06 2.81 2.52 2.24 1.96 1.80 1.73 1.96 1.92 1.83 1.85 2.10 2.15 1.89 2.13 2.44 2.64 2.76 2.57 2.43 2.14 1.93 1.77 1.69 1.68 1.58 1.75 1.83 1.92 1.93 2.23 2.47 2.96
5.01 5.72 6.12 6.32 5.77 5.02 4.68 4.59 4.21 3.63 3.21 2.83 2.45 2.18 1.81 1.66 1.49 1.68 1.68 1.52 1.52 1.66 1.71 1.87 2.15 2.24 2.16 2.20 1.92 1.85 1.78 1.58 1.54 1.53 1.36 1.38 1.53 1.51 1.63 1.85 2.12 1.94 2.41
5.37 6.02 6.14 5.84 5.12 4.57 4.14 3.88 3.57 3.27 2.98 2.51 2.11 1.85 1.72 1.63 1.56 1.72 1.56 1.57 1.48 1.51 1.51 1.59 1.80 1.88 1.67 1.84 2.07 1.88 1.58 1.35 1.37 1.35 1.29 1.37 1.44 1.52 1.63 1.97 2.16 2.17 2.00
4.95 5.30 5.36 4.96 4.19 3.69 3.40 3.30 3.01 2.77 2.42 2.20 1.95 1.90 1.65 1.56 1.54 1.44 1.55 1.38 1.33 1.48 1.45 1.52 1.72 1.72 1.52 1.65 1.92 1.98 1.73 1.64 1.36 0.97 1.15 1.28 1.33 1.60 1.70 1.72 1.97 2.36 2.31
4.42 4.19 3.89 3.70 3.29 3.15 3.07 2.87 2.62 2.56 2.27 2.07 1.86 1.75 1.49 1.31 1.27 1.29 1.29 1.19 1.26 1.15 1.30 1.47 1.59 1.73 1.69 1.52 1.50 1.78 1.71 1.66 1.48 1.10 0.97 1.07 1.31 1.56 1.56 1.66 1.73 2.04 2.32
3.44 3.14 2.93 2.85 2.76 2.70 2.59 2.45 2.14 2.00 1.94 1.77 1.67 1.66 1.54 1.36 1.28 1.26 1.18 1.25 1.24 1.10 1.32 1.14 1.29 1.55 1.66 1.50 1.51 1.45 1.48 1.59 1.61 1.46 1.25 1.09 1.25 1.34 1.43 1.47 1.62 1.92 2.13
2.19 2.33 2.37 2.45 2.58 2.48 2.42 2.39 2.28 2.01 1.93 1.87 1.86 1.93 1.80 1.62 1.41 1.20 1.21 1.35 1.38 1.24 1.25 1.25 1.41 1.43 1.47 1.48 1.49 1.47 1.62 1.64 1.48 1.50 1.49 1.40 1.34 1.12 1.26 1.50 1.65 1.78 1.91
1.49 1.68 1.85 1.92 2.09 2.23 2.22 2.12 2.05 1.97 1.99 1.99 1.93 1.77 1.58 1.46 1.38 1.26 1.32 1.50 1.46 1.41 1.37 1.31 1.34 1.39 1.54 1.64 1.61 1.51 1.57 1.62 1.57 1.65 1.49 1.41 1.45 1.27 1.41 1.66 1.73 1.80 1.78